Regional Weather Roundup
Issued by NWS

Home | Current Version | Previous Version | Graphics & Text | Print | Product List | Glossary On
Versions: 1 2 3 4 5 6 7 8 9 10 11 12 13 14 15 16 17 18 19 20 21 22 23 24 25 26 27 28 29 30 31 32 33 34 35 36 37 38 39 40 41 42 43 44 45 46 47 48 49 50
000
ASUS43 KBIS 131702
RWRND

NORTH DAKOTA REGIONAL WEATHER ROUNDUP
NATIONAL WEATHER SERVICE BISMARCK ND
1100 AM CST WED DEC 13 2017

NOTE: "FAIR" INDICATES FEW OR NO CLOUDS BELOW 12,000 FEET WITH NO
SIGNIFICANT WEATHER AND/OR OBSTRUCTIONS TO VISIBILITY.


NDZ001>003-009>011-017-131800-
NORTHWEST NORTH DAKOTA

CITY           SKY/WX    TMP DP  RH WIND       PRES   REMARKS
WILLISTON      MOSUNNY   37  27  67 NW15G28   30.03R
MINOT          CLOUDY    36  27  69 NW21      29.92R
MINOT AFB      CLOUDY    35  27  72 NW18G28   29.91R
$$

NDZ018>021-031>035-040>046-131800-
SOUTHWEST NORTH DAKOTA

CITY           SKY/WX    TMP DP  RH WIND       PRES   REMARKS
BISMARCK       CLOUDY    36  28  73 NW25      29.94R
DICKINSON      MOSUNNY   34  26  72 NW21      29.98R
GARRISON         N/A     33  26  75 NW24G36   29.93R
HETTINGER ARPT MOSUNNY   37  26  64 NW25G35   30.00R
$$

NDZ004>008-012>016-024-026-027-054-131800-
NORTHEAST NORTH DAKOTA

CITY           SKY/WX    TMP DP  RH WIND       PRES   REMARKS
GRAND FORKS    CLOUDY    27  24  89 N26G37    29.79R WCI  12
GRND FRKS AFB  CLOUDY    27  25  92 N17G24    29.79R WCI  14
DEVILS LAKE    CLOUDY    32  28  85 N17       29.82R
$$

NDZ022-023-025-028>030-036>039-047>053-131800-
SOUTHEAST NORTH DAKOTA

CITY           SKY/WX    TMP DP  RH WIND       PRES   REMARKS
FARGO          CLOUDY    28  24  85 N24G39    29.78R WCI  14
JAMESTOWN      CLOUDY    32  29  88 N15       29.81R
$$





USA.gov is the U.S. government's official web portal to all federal, state and local government web resources and services.